Вернуться в каталог

COSMOS 2491 DEB

АктивенPO
NORAD 45172·DEBRIS·🇷🇺 Russia

Запущен Dec 25, 2013 с Plesetsk Cosmodrome

Loading…

Ближайшие Пролёты (ближайшие 24 часа)

TLE

СвежийSource: Space-Track

Эпоха: Sep 11, 2026, 16:34 UTC

1 45172U 13076AD  26254.69063428  .00001516  00000-0  74462-2 0  9991
2 45172  82.4589  53.4170 0132100 298.9373  59.8526 12.68913526305258

Отслеживайте COSMOS 2491 DEB в реальном времени с AllMySat

Download on the App Store